CAPE
19 0 0 25 43 38 19 6 11 15 6 0 0 2 2 0 0 0 0 0 0 0 0 0 1005 2034 2720 2959 2795 2869 2778 2764 2616 1826 1644 1460 1365 1429 1270 1178 1093 1017 487 254
21 0 22 38 41 52 48 36 22 44 43 20 0 0 0 0 0 0 0 0 0 0 0 0 1684 2374 2726 3055 2971 2923 2695 2740 2139 1703 1531 1206 1207 1380 1270 1019 1049 919 856 1102
0 7 33 17 3 35 51 36 28 64 71 50 8 0 0 0 0 0 0 0 0 0 0 21 1797 2786 3118 3218 3039 2966 2505 2272 2065 2215 1813 1707 1644 1774 1390 1557 1275 1400 1076 822
0 0 0 5 0 42 63 38 34 0 0 51 71 60 0 0 0 0 0 0 0 0 0 140 2307 3147 3211 3298 3177 2844 2489 2750 2246 2242 1921 2071 1208 1246 818 604 464 229 344 396
0 0 0 0 40 30 18 21 28 50 4 0 38 61 0 0 0 0 0 0 0 0 0 69 2506 3255 3248 3215 2900 2825 2765 2491 2086 1869 1915 1773 942 643 578 629 590 394 323 185
0 0 0 5 40 34 22 28 43 55 58 122 42 145 18 4 0 0 0 0 0 0 0 10 2378 3294 3383 3190 3044 2870 2577 2275 2196 2076 2142 1009 545 452 501 480 356 161 180 118
7 15 26 5 44 60 3 90 98 172 131 51 127 108 29 0 0 0 0 0 0 0 0 11 2467 3101 3270 3239 3075 2826 2465 2545 2484 2432 1636 1337 752 635 571 395 139 123 191 107
0 0 0 38 57 0 7 70 172 213 230 124 92 21 1 0 0 0 0 0 0 0 0 118 2425 2944 3159 3044 2891 2144 2595 2503 2148 2067 1931 1520 1280 1283 747 253 83 82 37 0
0 0 0 11 37 19 0 11 23 1 1 110 154 76 6 1 0 0 0 0 0 0 0 803 2429 2876 2946 2865 2448 2247 2415 2285 2002 2137 1975 1818 1927 1041 389 299 58 0 0 0
0 0 0 1 20 11 8 20 240 244 158 218 192 147 58 31 0 0 0 0 0 0 18 1610 2607 2879 2847 2216 2410 2711 2595 2325 1882 2095 2009 1338 1134 852 180 6 0 4 0 0
0 0 0 0 19 64 45 62 197 242 130 232 206 134 141 0 0 0 0 0 0 0 620 2110 2236 2332 2058 2234 2342 2522 2509 1921 1898 1801 1507 1225 812 347 178 7 0 0 1 0
0 0 0 0 23 116 110 150 159 289 218 183 119 0 378 0 2 0 0 0 0 0 1622 1868 2176 1944 1801 1805 1717 1744 1808 1668 1526 1579 1052 578 402 219 29 3 0 0 0 0
0 0 0 43 31 28 87 154 243 225 214 119 0 19 59 14 162 0 0 0 0 965 1631 2049 1917 1694 1691 1428 1398 1411 1316 1258 1191 1146 786 459 319 104 0 1 1 1 16 19
0 0 2 65 176 0 22 56 56 87 6 68 0 0 26 35 232 36 35 55 521 993 1511 1742 1600 1522 1577 1319 1327 1378 1322 1352 1056 831 472 364 192 10 36 3 1 18 5 0
0 0 1 3 57 94 43 61 27 79 0 0 0 115 16 33 262 109 73 1373 826 776 1005 901 1086 1134 1402 1665 1555 1469 1265 1044 753 588 439 417 148 174 136 20 16 0 0 0
0 0 0 4 117 74 57 24 0 5 0 0 12 55 146 241 19 481 1159 695 641 380 495 399 557 1011 1600 1531 1747 1617 1462 797 469 453 488 407 403 152 43 24 0 0 0 0
0 3 0 58 92 48 71 0 0 0 0 0 13 162 315 400 982 868 733 593 162 249 147 440 593 1180 1462 1688 1804 1405 725 611 557 552 446 460 267 67 14 0 0 0 0 0
0 0 42 94 110 17 12 0 0 1 0 10 147 250 291 442 626 604 513 262 261 212 318 606 1135 1552 1323 1048 776 626 512 537 526 554 366 256 156 36 0 0 0 0 0 0
0 0 52 103 165 24 0 0 0 2 57 73 68 155 220 355 297 453 311 136 168 170 620 1097 1427 1126 895 640 412 150 34 61 93 212 203 113 1 0 0 0 0 0 0 0
0 0 11 0 0 0 0 0 0 0 12 105 189 231 393 518 175 253 250 160 362 791 1022 1294 952 743 550 178 41 8 51 77 40 17 0 0 0 0 0 0 0 0 0 0
0 0 0 0 0 0 8 0 0 0 1 108 89 142 328 168 127 295 97 234 671 876 1103 607 649 289 130 41 12 4 0 0 0 0 0 0 0 0 0 0 0 0 0 0
0 0 0 0 0 0 2 0 0 0 0 111 185 180 335 117 332 163 356 559 921 848 435 319 181 53 34 2 0 1 0 0 0 0 0 0 0 0 0 0 0 0 0 0
0 0 0 0 0 0 0 0 0 0 0 63 152 168 188 84 342 451 500 811 867 259 165 58 47 18 0 0 0 0 0 0 0 0 0 0 0 0 0 0 0 0 0 0
0 0 0 0 0 9 3 0 0 0 1 42 173 146 201 124 223 53 624 549 427 111 58 52 39 16 0 0 0 0 0 0 0 0 0 0 0 0 0 0 0 0 0 0
0 0 0 2 8 19 1 4 1 0 4 134 94 138 79 113 374 465 407 411 224 75 26 1 0 0 0 0 0 0 0 0 0 0 0 0 0 0 0 0 0 0 0 0
0 0 1 6 0 16 22 0 2 0 0 39 55 69 16 271 267 399 351 403 162 45 12 0 0 0 0 0 0 0 0 0 0 0 0 0 0 0 0 0 0 0 0 0
CIN
0 0 0 0 0 0 0 0 -21 -31 -2 0 0 0 0 0 0 0 0 0 0 0 0 0 -35 -6 -16 -18 -33 -26 -25 -15 -15 -55 -37 -13 -11 0 0 0 0 -3 -4 -22
0 0 0 0 0 0 0 -1 -26 -11 -5 -11 -5 0 0 0 0 0 0 0 0 0 0 0 -2 0 -25 -55 -38 -23 -39 -37 -64 -52 -19 -20 -5 0 0 0 0 0 0 0
0 0 0 0 0 0 0 0 -30 -9 -4 -12 0 0 0 0 0 0 0 0 0 0 0 -37 -6 0 -13 -29 -47 -48 -75 -98 -65 -13 -24 -16 -2 0 0 0 -3 0 0 -5
0 0 0 0 0 0 0 0 0 0 0 -32 -1 -1 0 0 0 0 0 0 0 0 0 -65 0 0 -6 -24 -40 -59 -64 -44 -35 -18 -25 -9 -9 -6 -53 -78 -67 -95 -26 -20
0 0 0 0 0 -1 0 -1 0 0 0 0 -11 -2 0 0 0 0 0 0 0 0 0 -49 0 0 -14 -30 -45 -47 -50 -38 -44 -45 -25 -16 -105 -108 -109 -71 -43 -49 -54 -74
0 0 0 -28 0 0 -1 0 0 0 0 -11 -67 0 -42 0 0 0 0 0 0 0 0 -68 0 0 -7 -3 -12 -49 -53 -50 -50 -29 -32 -138 -31 -173 -36 -78 -69 -107 -95 -51
0 0 0 -10 0 0 0 0 0 0 -7 -67 0 0 -34 0 0 0 0 0 0 0 0 -59 0 0 0 -4 -23 -37 -49 -43 -34 -32 -79 -101 -160 -111 -87 -65 -106 -176 -112 -54
0 0 0 0 0 0 0 0 -1 0 0 -2 0 -14 -6 0 0 0 0 0 0 0 0 -38 0 0 0 -3 -22 -103 -56 -60 -79 -62 -51 -72 -58 -27 -34 -94 -182 -153 -172 -48
0 0 0 -1 0 0 0 0 -13 -2 -8 0 0 0 -81 -55 0 0 0 0 0 0 0 -31 0 0 -3 -21 -84 -88 -78 -85 -95 -55 -52 -26 -1 -26 -86 -93 -224 0 0 -144
0 0 0 0 -1 -1 0 -1 0 0 0 0 0 0 0 0 0 0 0 0 0 0 -12 0 0 0 -5 -87 -83 -58 -83 -91 -103 -46 -14 -43 -43 -40 -54 -195 0 0 0 0
0 0 0 0 0 0 0 -2 0 0 0 0 0 0 0 0 0 0 0 0 0 0 -16 0 -8 -29 -91 -90 -91 -74 -50 -97 -47 -25 -59 -55 -54 -18 -26 -157 0 0 0 0
0 0 0 0 -1 0 0 0 0 0 0 0 0 0 -1 0 0 0 0 0 0 0 0 -12 -27 -86 -119 -162 -119 -131 -98 -70 -77 -64 -69 -46 -18 -21 -63 -8 0 0 0 0
0 0 -1 -15 -2 0 -6 0 0 0 0 0 0 -2 -14 -52 -20 0 0 0 0 -2 -2 -22 -74 -88 -59 -193 -154 -134 -106 -70 -92 -77 -49 -21 -23 -49 0 -44 -24 -22 -69 -49
0 0 -2 -5 0 0 -4 0 0 0 0 0 0 0 -3 -3 -2 0 -23 -1 0 -33 -49 -87 -105 -43 -166 -179 -176 -136 -77 -67 -72 -68 -48 -22 -23 -70 -86 -57 -57 -91 -63 0
0 0 0 -1 0 -1 -2 0 -5 0 0 0 0 -1 -16 -8 0 0 -7 -6 -23 -99 -123 -229 -24 -203 -153 -114 -104 -89 -74 -67 -76 -44 -27 -14 -32 -27 -28 -67 -72 0 0 0
0 0 -4 -10 0 -1 0 0 0 -14 0 0 -3 0 -17 -14 -16 -1 0 -60 -121 -228 -278 -334 -280 -191 -104 -103 -59 -35 -40 -65 -83 -46 -30 -18 -11 -25 -39 -62 0 0 0 0
0 0 0 -1 -4 0 0 0 0 0 0 0 -5 -1 0 -6 0 -1 -28 -88 -277 -309 -383 -281 -228 -126 -82 -51 -24 -34 -80 -75 -65 -37 -33 -14 -9 -26 -47 0 0 0 0 0
0 0 0 -1 0 0 0 0 0 -1 0 -6 -3 -5 -7 0 0 -2 -77 -222 -277 -314 -293 -211 -114 -54 -71 -68 -58 -80 -70 -64 -43 -21 -22 -19 -17 -18 0 0 0 0 0 0
0 0 0 0 0 -9 0 0 0 -16 -2 -2 -8 -1 -22 -42 -56 -23 -116 -261 -305 -322 -200 -112 -50 -72 -63 -70 -66 -51 -150 -110 -90 -46 -29 -24 -1 0 0 0 0 0 0 0
0 0 0 0 0 0 0 0 0 0 -22 -1 0 0 -4 -14 -109 -52 -95 -210 -194 -128 -89 -43 -60 -69 -64 -29 -33 -34 -138 -109 -104 -84 0 0 0 0 0 0 0 0 0 0
0 0 0 0 0 0 -3 0 0 0 -40 -2 -3 -1 0 -64 -154 -88 -160 -132 -68 -43 -10 -43 -48 -38 -33 -32 -25 -28 0 0 0 0 0 0 0 0 0 0 0 0 0 0
0 0 0 0 0 0 -2 0 0 0 0 -1 0 -5 -11 -73 -75 -111 -63 -39 -4 -5 -42 -52 -47 -42 -23 -8 -10 -7 0 0 0 0 0 0 0 0 0 0 0 0 0 0
0 0 0 0 0 0 0 -2 0 0 0 -5 0 0 -28 -61 -37 -39 -16 0 0 -49 -60 -41 -21 -26 0 0 0 0 0 0 0 0 0 0 0 0 0 0 0 0 0 0
0 0 0 0 0 -1 0 0 0 0 0 0 0 -5 0 -20 -38 -103 0 0 0 -27 -31 -14 -23 -34 0 0 -2 0 0 0 0 0 0 0 0 0 0 0 0 0 0 0
0 0 0 -1 -3 -7 -12 0 0 0 -10 -1 -1 -2 -12 -20 -12 -13 -3 0 -1 -5 -9 -5 0 0 0 0 0 0 0 0 0 0 0 0 0 0 0 0 0 0 0 0
0 0 -2 -2 -1 -9 -8 0 -1 0 0 -22 -18 -11 -19 0 -4 -1 0 0 0 -2 -12 -3 0 0 0 0 0 0 0 0 0 0 0 0 0 0 0 0 0 0 0 0
Wind_Speed
nan nan nan nan nan nan nan nan nan nan nan nan nan nan nan nan nan nan nan nan nan nan nan nan 49 49 46 41 40 38 40 40 41 43 42 43 38 39 40 41 44 44 44 44
nan nan nan nan nan nan nan nan nan nan nan nan nan nan nan nan nan nan nan nan nan nan nan nan 41 46 46 42 43 40 41 46 46 47 49 46 41 42 45 48 49 48 48 49
nan nan nan nan nan nan nan nan nan nan nan nan nan nan nan nan nan nan nan nan nan nan nan nan 35 42 43 48 45 38 44 50 46 54 55 54 51 53 51 55 55 55 54 56
nan nan nan nan nan nan nan nan nan nan nan nan nan nan nan nan nan nan nan nan nan nan nan 38 33 35 42 45 45 48 47 52 52 45 53 51 49 56 54 54 51 49 51 51
nan nan nan nan nan nan nan nan nan nan nan nan nan nan nan nan nan nan nan nan nan nan nan nan 31 41 44 47 47 47 48 47 51 43 46 50 45 43 50 49 48 42 41 42
nan nan nan nan nan nan nan nan nan nan nan 21 nan 18 nan nan nan nan nan nan nan nan nan nan 35 42 48 49 43 47 48 45 45 46 49 44 47 45 43 42 40 39 40 41
nan nan nan nan nan nan nan nan nan 29 28 nan 13 19 nan nan nan nan nan nan nan nan nan nan 36 42 46 46 44 45 41 42 41 43 43 43 44 42 40 39 33 34 35 34
nan nan nan nan nan nan nan nan 19 26 25 13 nan nan nan nan nan nan nan nan nan nan nan 45 45 52 48 40 39 48 41 44 39 39 41 40 40 31 32 28 nan nan nan nan
nan nan nan nan nan nan nan nan nan nan nan 26 15 nan nan nan nan nan nan nan nan nan nan 41 44 51 44 38 46 39 38 36 37 41 41 36 29 30 22 25 nan nan nan nan
nan nan nan nan nan nan nan nan 23 26 25 19 9 9 nan nan nan nan nan nan nan nan nan 44 46 46 42 44 39 38 34 39 41 41 36 35 33 27 26 nan nan nan nan nan
nan nan nan nan nan nan nan nan 15 17 16 21 9 9 7 nan nan nan nan nan nan nan 46 50 57 51 44 44 43 41 40 41 38 40 39 35 29 32 27 nan nan nan nan nan
nan nan nan nan nan 16 16 17 14 10 7 11 15 nan 28 nan nan nan nan nan nan nan 50 61 54 50 50 51 46 40 38 38 37 36 36 33 33 33 nan nan nan nan nan nan
nan nan nan nan nan nan nan 15 11 5 12 12 nan nan nan nan 75 nan nan nan nan 57 67 58 53 54 56 50 46 42 38 38 34 36 35 33 33 35 nan nan nan nan nan nan
nan nan nan nan 4 nan nan nan nan nan nan nan nan nan nan nan 77 nan nan nan 57 64 54 56 58 55 52 46 44 39 37 36 34 35 35 35 35 nan nan nan nan nan nan nan
nan nan nan nan nan nan nan nan nan nan nan nan nan 27 nan nan 83 57 nan 68 61 51 51 53 52 48 45 44 39 35 35 35 34 37 36 37 36 37 36 nan nan nan nan nan
nan nan nan nan 17 nan nan nan nan nan nan nan nan nan 53 56 nan 45 65 56 54 52 52 50 46 43 40 37 32 32 32 34 35 36 38 37 39 39 nan nan nan nan nan nan
nan nan nan nan nan nan nan nan nan nan nan nan nan 48 53 56 59 55 56 55 54 51 49 47 43 39 38 33 30 29 31 32 34 34 35 35 36 nan nan nan nan nan nan nan
nan nan nan nan 10 nan nan nan nan nan nan nan 62 49 55 54 60 61 59 55 52 48 48 45 42 40 39 34 34 32 34 34 34 37 37 38 39 nan nan nan nan nan nan nan
nan nan nan 5 5 nan nan nan nan nan nan nan nan 45 32 46 55 68 63 61 53 49 46 44 43 43 39 38 35 35 nan nan nan 40 41 39 nan nan nan nan nan nan nan nan
nan nan nan nan nan nan nan nan nan nan nan 70 58 35 26 33 48 57 56 58 54 50 46 48 48 45 41 39 nan nan nan nan nan nan nan nan nan nan nan nan nan nan nan nan
nan nan nan nan nan nan nan nan nan nan nan 70 nan 47 33 40 47 45 nan 48 46 45 49 48 45 41 40 nan nan nan nan nan nan nan nan nan nan nan nan nan nan nan nan nan
nan nan nan nan nan nan nan nan nan nan nan 54 50 39 34 36 41 43 44 44 43 46 44 42 39 nan nan nan nan nan nan nan nan nan nan nan nan nan nan nan nan nan nan nan
nan nan nan nan nan nan nan nan nan nan nan nan 47 45 33 nan 41 40 43 42 43 44 43 nan nan nan nan nan nan nan nan nan nan nan nan nan nan nan nan nan nan nan nan nan
nan nan nan nan nan nan nan nan nan nan nan nan 48 46 41 41 42 nan 42 43 42 44 nan nan nan nan nan nan nan nan nan nan nan nan nan nan nan nan nan nan nan nan nan nan
nan nan nan nan nan nan nan nan nan nan nan 46 nan 45 nan 39 44 45 48 46 44 nan nan nan nan nan nan nan nan nan nan nan nan nan nan nan nan nan nan nan nan nan nan nan
nan nan nan nan nan nan nan nan nan nan nan nan nan nan nan 41 41 43 45 45 44 nan nan nan nan nan nan nan nan nan nan nan nan nan nan nan nan nan nan nan nan nan nan nan
Wind_Direction
nan nan nan nan nan nan nan nan nan nan nan nan nan nan nan nan nan nan nan nan nan nan nan nan 215 218 221 223 228 236 240 250 248 248 248 248 255 266 272 277 278 279 276 278
nan nan nan nan nan nan nan nan nan nan nan nan nan nan nan nan nan nan nan nan nan nan nan nan 218 215 223 226 227 234 243 247 244 243 243 250 258 264 270 274 277 274 274 276
nan nan nan nan nan nan nan nan nan nan nan nan nan nan nan nan nan nan nan nan nan nan nan nan 213 210 213 231 230 237 246 243 242 243 242 246 255 263 267 269 271 269 272 274
nan nan nan nan nan nan nan nan nan nan nan nan nan nan nan nan nan nan nan nan nan nan nan 201 207 200 216 224 233 241 248 251 245 261 259 264 266 261 259 268 270 275 277 278
nan nan nan nan nan nan nan nan nan nan nan nan nan nan nan nan nan nan nan nan nan nan nan nan 199 203 215 226 233 239 247 251 261 257 257 264 267 264 264 266 265 266 273 279
nan nan nan nan nan nan nan nan nan nan nan 267 nan 258 nan nan nan nan nan nan nan nan nan nan 202 202 213 225 233 237 245 252 253 257 264 271 269 268 266 265 270 272 272 279
nan nan nan nan nan nan nan nan nan 283 274 nan 278 280 nan nan nan nan nan nan nan nan nan nan 202 202 215 226 231 237 246 246 254 265 267 269 272 276 280 280 279 281 294 286
nan nan nan nan nan nan nan nan 277 263 286 290 nan nan nan nan nan nan nan nan nan nan nan 189 202 212 221 226 235 239 247 258 264 264 264 263 267 268 267 281 nan nan nan nan
nan nan nan nan nan nan nan nan nan nan nan 238 224 nan nan nan nan nan nan nan nan nan nan 196 209 217 221 228 233 244 256 257 256 257 258 264 265 261 267 276 nan nan nan nan
nan nan nan nan nan nan nan nan 269 270 264 279 271 267 nan nan nan nan nan nan nan nan nan 200 212 213 214 222 232 243 252 253 250 255 256 248 251 260 265 nan nan nan nan nan
nan nan nan nan nan nan nan nan 287 255 278 251 207 234 162 nan nan nan nan nan nan nan 202 206 210 211 220 221 229 238 250 246 250 244 246 248 257 262 270 nan nan nan nan nan
nan nan nan nan nan 19 348 334 339 265 286 254 239 nan 137 nan nan nan nan nan nan nan 206 213 210 215 219 224 232 232 241 243 246 249 250 252 262 267 nan nan nan nan nan nan
nan nan nan nan nan nan nan 346 357 21 226 209 nan nan nan nan 156 nan nan nan nan 209 212 208 212 215 219 225 228 232 240 248 251 250 251 257 262 266 nan nan nan nan nan nan
nan nan nan nan 91 nan nan nan nan nan nan nan nan nan nan nan 158 nan nan nan 205 207 205 206 211 216 222 224 231 235 241 246 250 253 256 257 262 nan nan nan nan nan nan nan
nan nan nan nan nan nan nan nan nan nan nan nan nan 125 nan nan 162 167 nan 201 202 202 202 207 214 217 222 227 228 235 242 249 252 254 256 260 264 266 271 nan nan nan nan nan
nan nan nan nan 24 nan nan nan nan nan nan nan nan nan 135 146 nan 170 196 198 201 203 205 210 217 223 226 230 233 239 243 247 254 259 261 264 264 265 nan nan nan nan nan nan
nan nan nan nan nan nan nan nan nan nan nan nan nan 132 142 161 190 187 189 193 204 205 210 214 218 222 229 237 239 245 250 253 256 259 259 261 266 nan nan nan nan nan nan nan
nan nan nan nan 44 nan nan nan nan nan nan nan 143 125 141 197 189 185 186 197 200 207 214 216 219 227 236 242 248 251 254 261 267 268 267 267 266 nan nan nan nan nan nan nan
nan nan nan 48 31 nan nan nan nan nan nan nan nan 166 173 200 197 182 188 192 200 207 212 220 226 233 241 251 255 255 nan nan nan 266 267 271 nan nan nan nan nan nan nan nan
nan nan nan nan nan nan nan nan nan nan nan 154 149 133 171 178 178 172 188 195 201 208 216 227 234 241 243 247 nan nan nan nan nan nan nan nan nan nan nan nan nan nan nan nan
nan nan nan nan nan nan nan nan nan nan nan 151 nan 148 161 165 167 183 nan 196 200 209 219 228 235 238 244 nan nan nan nan nan nan nan nan nan nan nan nan nan nan nan nan nan
nan nan nan nan nan nan nan nan nan nan nan 151 163 172 182 180 176 187 196 198 203 216 221 225 230 nan nan nan nan nan nan nan nan nan nan nan nan nan nan nan nan nan nan nan
nan nan nan nan nan nan nan nan nan nan nan nan 163 168 176 nan 181 187 197 208 213 221 222 nan nan nan nan nan nan nan nan nan nan nan nan nan nan nan nan nan nan nan nan nan
nan nan nan nan nan nan nan nan nan nan nan nan 168 172 176 195 188 nan 200 206 213 222 nan nan nan nan nan nan nan nan nan nan nan nan nan nan nan nan nan nan nan nan nan nan
nan nan nan nan nan nan nan nan nan nan nan 173 nan 176 nan 199 195 200 204 208 216 nan nan nan nan nan nan nan nan nan nan nan nan nan nan nan nan nan nan nan nan nan nan nan
nan nan nan nan nan nan nan nan nan nan nan nan nan nan nan 198 209 206 208 210 215 nan nan nan nan nan nan nan nan nan nan nan nan nan nan nan nan nan nan nan nan nan nan nan